User: anonymous   Login
Location: Franzen
(48.6167°N, 15.3833°E)
Time: 23:32:08
(UTC+00:00)
Language:

COSMOS 2455 - Orbit

View from above orbital plane
View from above orbital plane
View from above satellite
View from above satellite

Ground track
Ground track

The orbit data is extracted from the following two-line orbital elements,

1 36095U 09063A   21169.24036916 -.00000065  00000-0  76487-5 0  9990
2 36095  67.1485   9.9693 0003801 288.7828  71.2844 13.96769882590253
Epoch (UTC): 18 June 2021 05:46:07
Eccentricity: 0.0003801
inclination: 67.1485°
perigee height: 902 km
apogee height: 908 km
right ascension of ascending node: 9.9693°
argument of perigee: 288.7828°
revolutions per day: 13.96769882
mean anomaly at epoch: 71.2844°
orbit number at epoch: 59025

The dashed part of the orbit path shows where the satellite is in the earth's shadow,  

DLR